Oakes, ND

4:04 PM CST on December 14, 2017 (GMT -0600)
Oakes

Weather History for K2D5 - October, 2013

Change the Weather History Date:

Tuesday, October 1, 2013

  Actual Average (KP67) Record (KP67)
Temperature  
Mean Temperature 56 °F -  
Max Temperature 69 °F 67 °F 84 °F (1997)
Min Temperature 44 °F 41 °F 39 °F (1996)
Degree Days  
Heating Degree Days 8    
Growing Degree Days 6 (Base 50)    
Moisture  
Dew Point 39 °F    
Average Humidity 55    
Maximum Humidity 87    
Minimum Humidity 25    
Precipitation  
Precipitation 0.00 in - - ()
Sea Level Pressure  
Sea Level Pressure 29.83 in    
Wind  
Wind Speed 14 mph (West)    
Max Wind Speed 25 mph    
Max Gust Speed 31 mph    
Visibility 10 miles    
Events      
Averages and records for this station are not official NWS values.
T = Trace of Precipitation, MM = Missing Value Source: NWS Daily Summary

Daily Weather History Graph

Daily Weather History Graph

Search for Another Location

Airport or City:

Trip Planner

Search our weather history database for the weather conditions in past years. The results will help you decide how hot, cold, wet, or windy it might be!

Date:

Astronomy

Oct. 01, 2013 Rise Set
Actual Time 7:31 AM CDT 7:11 PM CDT
Civil Twilight 7:01 AM CDT 7:41 PM CDT
Nautical Twilight 6:26 AM CDT 8:16 PM CDT
Astronomical Twilight 5:51 AM CDT 8:51 PM CDT
Moon 3:57 AM CDT (10/1) 5:23 PM CDT (10/1)
Length of Visible Light 12h 40m
Length of Day
11h 40m
Waning Crescent, 12% of the Moon is Illuminated
Oct 1
Waning Crescent
Oct 4
New
Oct 11
First Quarter
Oct 18
Full
Oct 26
Last Quarter

Hourly Weather History & Observations

Time (CDT) Temp. Windchill Dew Point Humidity Pressure Visibility Wind Dir Wind Speed Gust Speed Precip Events Conditions
12:15 AM 59.0 °F - 50.0 °F 72% 29.60 in 10.0 mi NW 20.7 mph 27.6 mph N/A   Scattered Clouds
12:35 AM 59.0 °F - 50.0 °F 72% 29.60 in 10.0 mi WNW 11.5 mph 18.4 mph N/A   Scattered Clouds
12:55 AM 59.0 °F - 50.0 °F 72% 29.60 in 10.0 mi NW 11.5 mph 19.6 mph N/A   Clear
1:15 AM 57.2 °F - 50.0 °F 77% 29.58 in 10.0 mi NW 9.2 mph - N/A   Clear
1:35 AM 55.4 °F - 50.0 °F 82% 29.61 in 10.0 mi WNW 10.4 mph - N/A   Partly Cloudy
1:55 AM 55.4 °F - 50.0 °F 82% 29.63 in 10.0 mi WNW 13.8 mph 20.7 mph N/A   Mostly Cloudy
2:15 AM 57.2 °F - 48.2 °F 72% 29.65 in 10.0 mi WNW 19.6 mph 26.5 mph N/A   Mostly Cloudy
2:35 AM 57.2 °F - 46.4 °F 67% 29.65 in 10.0 mi WNW 18.4 mph 24.2 mph N/A   Mostly Cloudy
2:55 AM 57.2 °F - 46.4 °F 67% 29.66 in 10.0 mi WNW 18.4 mph - N/A   Partly Cloudy
3:15 AM 55.4 °F - 46.4 °F 72% 29.67 in 10.0 mi WNW 16.1 mph - N/A   Scattered Clouds
3:35 AM 55.4 °F - 44.6 °F 67% 29.67 in 10.0 mi WNW 15.0 mph - N/A   Scattered Clouds
3:55 AM 53.6 °F - 44.6 °F 72% 29.69 in 10.0 mi West 15.0 mph - N/A   Scattered Clouds
4:15 AM 53.6 °F - 44.6 °F 72% 29.71 in 10.0 mi West 13.8 mph - N/A   Clear
4:35 AM 51.8 °F - 44.6 °F 76% 29.71 in 10.0 mi West 13.8 mph - N/A   Clear
4:55 AM 50.0 °F - 42.8 °F 76% 29.73 in 10.0 mi West 10.4 mph - N/A   Clear
5:15 AM 50.0 °F - 42.8 °F 76% 29.73 in 10.0 mi West 9.2 mph - N/A   Clear
5:35 AM 50.0 °F - 42.8 °F 76% 29.75 in 10.0 mi West 6.9 mph - N/A   Clear
5:55 AM 50.0 °F - 42.8 °F 76% 29.76 in 10.0 mi WSW 9.2 mph - N/A   Clear
6:15 AM 50.0 °F - 42.8 °F 76% 29.77 in 10.0 mi WSW 10.4 mph - N/A   Clear
6:35 AM 48.2 °F - 41.0 °F 76% 29.78 in 10.0 mi WSW 10.4 mph - N/A   Clear
6:55 AM 48.2 °F - 41.0 °F 76% 29.79 in 10.0 mi WSW 9.2 mph - N/A   Clear
7:15 AM 46.4 °F 42.4 °F 41.0 °F 81% 29.80 in 10.0 mi West 8.1 mph - N/A   Clear
7:35 AM 48.2 °F - 41.0 °F 76% 29.80 in 10.0 mi WSW 9.2 mph - N/A   Clear
7:55 AM 48.2 °F - 41.0 °F 76% 29.81 in 10.0 mi SW 10.4 mph - N/A   Clear
8:15 AM 48.2 °F - 41.0 °F 76% 29.82 in 10.0 mi SW 12.7 mph - N/A   Clear
8:35 AM 50.0 °F - 41.0 °F 71% 29.82 in 10.0 mi WSW 13.8 mph 21.9 mph N/A   Clear
8:55 AM 50.0 °F - 41.0 °F 71% 29.83 in 10.0 mi WSW 12.7 mph - N/A   Clear
9:15 AM 53.6 °F - 41.0 °F 62% 29.84 in 10.0 mi West 15.0 mph 19.6 mph N/A   Clear
9:35 AM 55.4 °F - 39.2 °F 54% 29.85 in 10.0 mi West 13.8 mph 19.6 mph N/A   Clear
9:55 AM 57.2 °F - 37.4 °F 48% 29.86 in 10.0 mi West 18.4 mph 23.0 mph N/A   Clear
10:15 AM 59.0 °F - 37.4 °F 45% 29.86 in 10.0 mi West 20.7 mph 25.3 mph N/A   Clear
10:35 AM 60.8 °F - 37.4 °F 42% 29.86 in 10.0 mi West 20.7 mph 29.9 mph N/A   Clear
10:55 AM 62.6 °F - 35.6 °F 37% 29.87 in 10.0 mi West 19.6 mph 25.3 mph N/A   Clear
11:15 AM 62.6 °F - 35.6 °F 37% 29.88 in 10.0 mi West 21.9 mph 28.8 mph N/A   Clear
11:35 AM 64.4 °F - 33.8 °F 32% 29.88 in 10.0 mi West 25.3 mph 31.1 mph N/A   Clear
11:55 AM 64.4 °F - 32.0 °F 30% 29.87 in 10.0 mi West 23.0 mph 28.8 mph N/A   Clear
12:15 PM 64.4 °F - 32.0 °F 30% 29.87 in 10.0 mi West 21.9 mph 28.8 mph N/A   Clear
12:35 PM 66.2 °F - 33.8 °F 30% 29.88 in 10.0 mi West 20.7 mph 29.9 mph N/A   Clear
12:55 PM 66.2 °F - 32.0 °F 28% 29.88 in 10.0 mi West 23.0 mph 28.8 mph N/A   Clear
1:15 PM 66.2 °F - 33.8 °F 30% 29.88 in 10.0 mi West 18.4 mph 28.8 mph N/A   Clear
1:35 PM 68.0 °F - 32.0 °F 26% 29.88 in 10.0 mi West 18.4 mph 31.1 mph N/A   Clear
1:55 PM 68.0 °F - 33.8 °F 28% 29.88 in 10.0 mi West 20.7 mph 27.6 mph N/A   Clear
2:15 PM 68.0 °F - 33.8 °F 28% 29.88 in 10.0 mi WSW 24.2 mph 29.9 mph N/A   Clear
2:35 PM 68.0 °F - 32.0 °F 26% 29.88 in 10.0 mi West 23.0 mph 28.8 mph N/A   Clear
2:55 PM 68.0 °F - 35.6 °F 30% 29.88 in 10.0 mi WSW 16.1 mph 23.0 mph N/A   Clear
3:15 PM 69.8 °F - 33.8 °F 27% 29.88 in 10.0 mi West 21.9 mph 31.1 mph N/A   Clear
3:35 PM 69.8 °F - 33.8 °F 27% 29.88 in 10.0 mi West 24.2 mph 31.1 mph N/A   Clear
3:55 PM 69.8 °F - 33.8 °F 27% 29.88 in 10.0 mi West 16.1 mph 28.8 mph N/A   Clear
4:15 PM 69.8 °F - 35.6 °F 28% 29.87 in 10.0 mi West 20.7 mph 29.9 mph N/A   Clear
4:35 PM 69.8 °F - 33.8 °F 27% 29.87 in 10.0 mi West 17.3 mph 25.3 mph N/A   Clear
4:55 PM 69.8 °F - 32.0 °F 25% 29.87 in 10.0 mi West 19.6 mph 27.6 mph N/A   Clear
5:15 PM 68.0 °F - 32.0 °F 26% 29.88 in 10.0 mi West 18.4 mph 27.6 mph N/A   Clear
5:35 PM 68.0 °F - 33.8 °F 28% 29.89 in 10.0 mi West 11.5 mph - N/A   Clear
5:55 PM 68.0 °F - 33.8 °F 28% 29.89 in 10.0 mi West 11.5 mph - N/A   Clear
6:15 PM 66.2 °F - 33.8 °F 30% 29.89 in 10.0 mi West 10.4 mph - N/A   Clear
6:35 PM 66.2 °F - 35.6 °F 32% 29.89 in 10.0 mi West 9.2 mph - N/A   Clear
6:55 PM 62.6 °F - 35.6 °F 37% 29.90 in 10.0 mi WSW 6.9 mph - N/A   Clear
7:15 PM 59.0 °F - 35.6 °F 42% 29.91 in 10.0 mi WSW 6.9 mph - N/A   Clear
7:35 PM 57.2 °F - 37.4 °F 48% 29.91 in 10.0 mi WSW 8.1 mph - N/A   Clear
7:55 PM 55.4 °F - 37.4 °F 51% 29.92 in 10.0 mi SSW 5.8 mph - N/A   Clear
8:15 PM 55.4 °F - 39.2 °F 54% 29.92 in 10.0 mi SW 6.9 mph - N/A   Clear
8:35 PM 53.6 °F - 37.4 °F 54% 29.93 in 10.0 mi Calm Calm - N/A   Clear
8:55 PM 53.6 °F - 39.2 °F 58% 29.94 in 10.0 mi SW 5.8 mph - N/A   Clear
9:15 PM 50.0 °F - 39.2 °F 66% 29.94 in 10.0 mi SSW 6.9 mph - N/A   Clear
9:35 PM 48.2 °F - 39.2 °F 71% 29.94 in 9.0 mi SW 4.6 mph - N/A   Clear
9:55 PM 48.2 °F - 39.2 °F 71% 29.94 in 10.0 mi Calm Calm - N/A   Clear
10:15 PM 46.4 °F 45.2 °F 41.0 °F 81% 29.95 in 10.0 mi South 3.5 mph - N/A   Clear
10:35 PM 46.4 °F 44.3 °F 39.2 °F 76% 29.95 in 10.0 mi SSW 4.6 mph - N/A   Clear
10:55 PM 46.4 °F 45.2 °F 39.2 °F 76% 29.95 in 10.0 mi SE 3.5 mph - N/A   Clear
11:15 PM 44.6 °F - 39.2 °F 81% 29.96 in 10.0 mi Calm Calm - N/A   Clear
11:35 PM 44.6 °F 42.2 °F 41.0 °F 87% 29.96 in 10.0 mi SSW 4.6 mph - N/A   Clear
11:55 PM 44.6 °F 41.4 °F 39.2 °F 81% 29.97 in 10.0 mi South 5.8 mph - N/A   Clear